AirNav   Air Wisconsin pilot careers
 
 1236 users online  

O53 Medford Municipal Airport
Medford, Oklahoma, USA

GOING TO MEDFORD?


FAA INFORMATION EFFECTIVE 11 OCTOBER 2018

Location

FAA Identifier: O53
Lat/Long: 36-47-26.1030N / 097-44-56.3900W
36-47.435050N / 097-44.939833W
36.7905842 / -97.7489972
(estimated)
Elevation: 1092 ft. / 332.8 m (surveyed)
Variation: 05E (2005)
From city: 1 mile SW of MEDFORD, OK
Time zone: UTC -5 (UTC -6 during Standard Time)
Zip code: 73759

Airport Operations

Airport use: Open to the public
Activation date: 03/1948
Control tower: no
ARTCC: KANSAS CITY CENTER
FSS: MC ALESTER FLIGHT SERVICE STATION
NOTAMs facility: MLC (NOTAM-D service available)
Attendance: IREG
Wind indicator: lighted
Segmented circle: yes
Lights: DUSK-DAWN ACTVT MIRL RY 17/35 - CTAF.
Beacon: white-green (lighted land airport)
Operates sunset to sunrise.

Airport Communications

CTAF/UNICOM: 122.8
VANCE APPROACH: 118.075
VANCE DEPARTURE: 118.075
WX AWOS-3 at BKN (19 nm E): 120.575 (580-363-0688)
  • APCH/DEP SVC PRVDD BY KANSAS CITY ARTCC ON FREQS 127.8/319.1 (PONCA CITY RCAG) WHEN VANCE APCH CTL CLSD.

Nearby radio navigation aids

VOR radial/distance  VOR name  Freq  Var
ODGr356/25.1WOODRING VOR/DME109.0008E
ENDr012/28.0VANCE VORTAC115.4005E
PERr269/28.4PIONEER VORTAC113.2006E
ANYr131/30.0ANTHONY VORTAC112.9007E

Airport Services

Fuel available: 100LL
FOR FUEL CALL ARPT ATTENDANT 580-395-3176 OR SHERIFF'S OFFICE 580-395-2356.
Parking: hangars and tiedowns
Airframe service: NONE
Powerplant service: NONE
Bottled oxygen: NONE
Bulk oxygen: NONE

Runway Information

Runway 17/35

Dimensions: 3007 x 60 ft. / 917 x 18 m
Surface: asphalt, in fair condition
Weight bearing capacity: 
Single wheel: 13.0
Runway edge lights: medium intensity
RUNWAY 17  RUNWAY 35
Latitude: 36-47.682800N36-47.187317N
Longitude: 097-44.939367W097-44.940900W
Elevation: 1092.0 ft.1085.0 ft.
Gradient: 0.2%0.2%
Traffic pattern: leftleft
Runway heading: 175 magnetic, 180 true355 magnetic, 360 true
Markings: nonprecision, in good conditionnonprecision, in good condition
Visual slope indicator: 2-light PAPI on left (3.51 degrees glide path)2-light PAPI on left (3.51 degrees glide path)
Touchdown point: yes, no lightsyes, no lights

Airport Ownership and Management from official FAA records

Ownership: Publicly-owned
Owner: CITY OF MEDFORD
615 N. FRONT ST.
MEDFORD, OK 73759
Phone 580-395-2875
Manager: DEA MANDEVILL
615 N. FRONT ST., PO BOX 123
MEDFORD, OK 73759
Phone 580-395-2875
CITY MANAGER.

Airport Operational Statistics

Aircraft based on the field: 9
Single engine airplanes: 9
    
Aircraft operations: avg 83/month *
60% local general aviation
40% transient general aviation
* for 12-month period ending 30 March 2016

Additional Remarks

100 FT REFINERY 1 NM SW OF ARPT.

Instrument Procedures

NOTE: All procedures below are presented as PDF files. If you need a reader for these files, you should download the free Adobe Reader.

NOT FOR NAVIGATION. Please procure official charts for flight.
FAA instrument procedures published for use from 11 October 2018 at 0901Z to 8 November 2018 at 0900Z.

 
IAPs - Instrument Approach Procedures
RNAV (GPS) RWY 17   download (128KB)
RNAV (GPS) RWY 35   download (136KB)

Other nearby airports with instrument procedures:

KBKN - Blackwell-Tonkawa Municipal Airport (19 nm E)
KWDG - Enid Woodring Regional Airport (25 nm S)
KANY - Anthony Municipal Airport (27 nm NW)
KEND - Vance Air Force Base (28 nm S)
KPNC - Ponca City Regional Airport (31 nm E)
 
Loc | Ops | Rwys | IFR | FBO | Links
Com | Nav | Svcs | Stats | Notes


 
Area around O53 (Medford Municipal Airport)
 
Road maps at: MapQuest Bing Google
 
Aerial photo
WARNING: Photo may not be current or correct
Aerial photo of O53 (Medford Municipal Airport)
Do you have a better or more recent aerial photo of Medford Municipal Airport that you would like to share? If so, please send us your photo.

 
Sectional chart

 
Airport distance calculator
Flying to Medford Municipal Airport? Find the distance to fly.

From to O53

Sunrise and sunset
Times for 23-Oct-2018
 Local
(UTC-5)
 Zulu
(UTC)
Morning civil twilight07:2112:21
Sunrise07:4712:47
Sunset18:4423:44
Evening civil twilight19:1000:10

Current date and time
Zulu (UTC)  23-Oct-2018 21:41:11
Local (UTC-5)  23-Oct-2018 16:41:11
 
METAR
KBKN 
19nm E 
232115Z AUTO 12007G12KT 10SM OVC095 22/09 A3024 RMK AO2
KWDG 
25nm S 
232050Z 10005KT 10SM BKN100 BKN120 22/10 A3021
KEND 
30nm S 
232056Z 09008KT 10SM BKN100 BKN200 21/10 A3021 RMK AO2A SLP228 T02060095 57018
KPNC 
31nm E 
232053Z AUTO 11005KT 10SM SCT100 22/08 A3021 RMK AO2 SLP225 T02220083 56019
8K2 
32nm NW 
SuperAWOS
232119Z AUTO 10SM 21/11 A3024
TAF
KEND 
30nm S 
231800Z 2318/2424 11006KT 9999 BKN080 QNH3015INS BECMG 2417/2418 09010G15KT 9999 BKN090 QNH3011INS TX20/2320Z TN11/2411Z
KPNC 
31nm E 
231735Z 2318/2418 09006KT P6SM SCT070 BKN250
NOTAMs
Click for the latest NOTAMs
NOTAMs are issued by the DoD/FAA and will open in a separate window not controlled by AirNav.

 

 
 

FBO, Fuel Providers, and Aircraft Ground Support

  
 Business Name 
 
 Contact 
 
 Services / Description 
 
Fuel Prices
 
Comments
  
Andy Deterding Ag Aviation 580-532-4483
no information available

If you are affiliated with Andy Deterding Ag Aviation and would like to show here your services, contact info, web link, logo, and more, click here
100LL
SS $4.25 
 Updated 06-May-2015
 
   write
SS=Self service
Update Fuel Prices
 

Would you like to see your business listed on this page?

 If your business provides an interesting product or service to pilots, flight crews, aircraft, or users of the Medford Municipal Airport, you should consider listing it here.  To start the listing process, click on the button below
 
Add a business
 

Other Pages about Medford Municipal Airport

Update a link
 
Copyright © AirNav, LLC. All rights reserved. Privacy Policy  Contact